Content
SEND FEEDBACK

Daily
Averages
Monthly
Summary
Ireland

DUBLIN, IRELAND


Home > Europe > Ireland
Elevation: 279 feet     Latitude: 53 26N     Longitude: 006 15W

WEATHER
 
SELECT A DAY
Number of Records: 322,332;   Date Range: 7/1/96 - 7/28/14
 
SHARE

PRINT THIS DATA

[ ← Previous Day ]
WEATHER ALMANAC - JANUARY 3, 2013
[ Next Day → ]
[ °C ]   °F
Weather ElementAverageHighLow
Temperature52.3 °F54 °F (12:00 pm)51.8 °F (12:00 am)
Dewpoint49.3 °F50 °F (12:00 am)46.4 °F (9:30 pm)
Humidity89.6 %94 % (12:00 am)80 % (12:00 pm)
Barometer30.40 in30.51 in (8:30 pm)30.27 in (12:00 am)
Wind Speed13.3 mph19.6 mph (10:30 pm)
Wind Gust13.8 mph (4:00 pm)
Weather ElementAverage
Visibility6.7 mi
Wind DirectionWSW (234.9 °)

Weather ElementTotal
Precipitation---
Heating Degree Days12.1 (Base 65)
Growing Degree Days2.9 (Base 50)
Averaged from 51 records on January 3, 2013
WEATHER CONDITIONS BREAKOUT
WIND DIRECTION BREAKOUT
WEATHER BY HOUR - JANUARY 3, 2013
[ °C ]   °F
Local TimeTemperatureDewpointHumidityBarometerVisibilityWind DirectionWind SpeedGust SpeedPrecipitationEventsConditions
12:00 AM51.8 °F50.0 °F94 %30.27 in6.2 miWSW (240°)15.0 mphMostly Cloudy
12:30 AM53.6 °F50.0 °F88 %30.27 in6.2 miWSW (240°)15.0 mphMostly Cloudy
1:00 AM51.8 °F50.0 °F94 %30.27 in6.2 miSW (230°)11.5 mphMostly Cloudy
1:30 AM51.8 °F50.0 °F94 %30.30 in6.2 miSW (230°)12.7 mphMostly Cloudy
2:00 AM51.8 °F50.0 °F94 %30.30 in6.2 miWSW (240°)16.1 mphMostly Cloudy
2:30 AM51.8 °F50.0 °F94 %30.30 in6.2 miWSW (250°)12.7 mphMostly Cloudy
3:00 AM51.8 °F50.0 °F94 %30.30 in6.2 miSW (230°)11.5 mphMostly Cloudy
3:30 AM51.8 °F50.0 °F94 %30.33 in6.2 miWSW (240°)10.4 mphMostly Cloudy
4:00 AM51.8 °F50.0 °F94 %30.33 in6.2 miSW (230°)10.4 mphLight Drizzle
4:30 AM51.8 °F50.0 °F94 %30.33 in6.2 miWSW (240°)11.5 mphMostly Cloudy
5:00 AM51.8 °F50.0 °F94 %30.33 in6.2 miWSW (240°)9.2 mphMostly Cloudy
5:30 AM51.8 °F50.0 °F94 %30.33 in3.7 miWSW (240°)12.7 mphLight Drizzle
6:00 AM51.8 °F50.0 °F94 %30.33 in5.0 miWSW (240°)12.7 mphLight Drizzle
6:00 AM52.0 °F50.0 °F92 %30.36 in5.0 miWSW (240°)13.4 mphRainLight Drizzle
6:30 AM51.8 °F50.0 °F94 %30.36 in6.2 miSW (230°)11.5 mphMostly Cloudy
7:00 AM51.8 °F50.0 °F94 %30.36 in6.2 miWSW (240°)11.5 mphMostly Cloudy
7:30 AM51.8 °F50.0 °F94 %30.36 in6.2 miSW (230°)10.4 mphMostly Cloudy
8:00 AM51.8 °F50.0 °F94 %30.39 in6.2 miSW (230°)10.4 mphMostly Cloudy
8:30 AM51.8 °F50.0 °F94 %30.39 in4.3 miSW (230°)11.5 mphLight Drizzle
9:00 AM51.8 °F50.0 °F94 %30.39 in2.2 miSW (220°)11.5 mphLight Drizzle
9:30 AM51.8 °F50.0 °F94 %30.39 in5.6 miSW (220°)10.4 mphLight Drizzle
10:00 AM51.8 °F50.0 °F94 %30.39 in6.2 miSW (230°)10.4 mphMostly Cloudy
10:30 AM51.8 °F50.0 °F94 %30.39 in6.2 miSW (220°)11.5 mphMostly Cloudy
11:00 AM53.6 °F50.0 °F88 %30.39 in6.2 miWSW (240°)10.4 mphMostly Cloudy
11:30 AM53.6 °F50.0 °F88 %30.39 in6.2 miWSW (240°)13.8 mphMostly Cloudy
12:00 PM53.6 °F50.0 °F88 %30.39 in6.2 miSW (230°)15.0 mphMostly Cloudy
12:00 PM54.0 °F50.0 °F80 %30.41 in22.0 miSW (230°)15.7 mphPartly Cloudy
12:30 PM53.6 °F50.0 °F88 %30.39 in6.2 miSW (230°)15.0 mphMostly Cloudy
1:00 PM53.6 °F50.0 °F88 %30.39 in6.2 miWSW (240°)17.3 mphMostly Cloudy
1:30 PM53.6 °F50.0 °F88 %30.39 in6.2 miWSW (240°)18.4 mphMostly Cloudy
2:00 PM53.6 °F50.0 °F88 %30.39 in6.2 miWSW (240°)15.0 mphMostly Cloudy
2:30 PM53.6 °F50.0 °F88 %30.39 in6.2 miWSW (240°)15.0 mphMostly Cloudy
3:00 PM53.6 °F50.0 °F88 %30.42 in6.2 miSW (230°)12.7 mphMostly Cloudy
3:30 PM53.6 °F50.0 °F88 %30.42 in6.2 miWSW (240°)11.5 mphMostly Cloudy
4:00 PM51.8 °F48.2 °F88 %30.45 in6.2 miWSW (240°)1.2 mph13.8 mphMostly Cloudy
4:30 PM53.6 °F48.2 °F82 %30.45 in6.2 miWSW (240°)13.8 mphMostly Cloudy
5:00 PM51.8 °F50.0 °F94 %30.45 in6.2 miSW (230°)16.1 mphMostly Cloudy
5:30 PM51.8 °F48.2 °F88 %30.48 in6.2 miSW (230°)12.7 mphMostly Cloudy
6:00 PM51.8 °F48.2 °F88 %30.48 in6.2 miSW (230°)11.5 mphMostly Cloudy
6:00 PM52.0 °F49.0 °F86 %30.49 in25.0 miWSW (240°)11.2 mphScattered Clouds
6:30 PM53.6 °F48.2 °F82 %30.48 in6.2 miWSW (240°)15.0 mphMostly Cloudy
7:00 PM51.8 °F48.2 °F88 %30.48 in6.2 miWSW (240°)17.3 mphMostly Cloudy
7:30 PM51.8 °F48.2 °F88 %30.48 in6.2 miSW (230°)16.1 mphMostly Cloudy
8:00 PM51.8 °F48.2 °F88 %30.48 in6.2 miSW (230°)13.8 mphMostly Cloudy
8:30 PM51.8 °F48.2 °F88 %30.51 in6.2 miSW (230°)11.5 mphMostly Cloudy
9:00 PM51.8 °F48.2 °F88 %30.51 in6.2 miSW (230°)15.0 mphMostly Cloudy
9:30 PM51.8 °F46.4 °F82 %30.51 in6.2 miSW (230°)16.1 mphMostly Cloudy
10:00 PM51.8 °F46.4 °F82 %30.51 in6.2 miWSW (240°)17.3 mphMostly Cloudy
10:30 PM51.8 °F46.4 °F82 %30.51 in6.2 miWSW (240°)19.6 mphMostly Cloudy
11:00 PM51.8 °F46.4 °F82 %30.51 in6.2 miWSW (240°)18.4 mphMostly Cloudy
11:30 PM51.8 °F46.4 °F82 %30.51 in6.2 miWSW (240°)18.4 mphMostly Cloudy
Hourly data recorded from EIDW, located miles away from Dublin, Ireland







STORIES FROM OUR PARTNERS